Notices

What's New in latest Release from April 7th, 2021:

- Updated Glossary, including Speed of Maximum Gust, and Total Hourly Precipitation

- Updated national and regional climate services offices contacts and prices information

- Addition of station inventory lists for 1981-2010, 1971-2000, and 1961-1990 Normals.

If you haven't already, please take our survey and provide feedback about our website: https://eccc.sondage-survey.ca/f/LanguageSelection.aspx?s=442ca660-fcf1-47c0-95a9-59707d6fd709

Hourly Data Report for January 27, 2021

SHEARWATER RCS
NOVA SCOTIA
Current Station Operator: ECCC - MSC

44°37'47.000" N
63°30'48.000" W
24.00 m
8205092
71264
AAW

Download Data

Hourly Data (January 2021)
Hourly Data Report for January 27, 2021
TIME
LST
Temp Definition
°C
Dew Point Definition
°C
Rel Hum Definition
%
Precip. Amount Definition
mm

Wind Dir Definition
10's deg

Wind Spd Definition
km/h
Visibility Definition
km
Stn Press Definition
kPa
Hmdx Definition


Wind Chill Definition


Weather Definition


00:00 -1.1 -3.1 87 0.0 34 6   101.22   -3 LegendNANA
01:00 -1.1 -3.0 87 0.0 1 6   101.21   -3 LegendNANA
02:00 -1.1 -3.0 87 0.0 1 7   101.16   -4 LegendNANA
03:00 -1.1 -3.5 84 0.0 2 11   101.15   -5 LegendNANA
04:00 -1.1 -3.8 82 0.0 2 8   101.12   -4 LegendNANA
05:00 -1.1 -3.9 81 0.0 2 11   101.13   -5 LegendNANA
06:00 -0.8 -3.9 80 0.0 36 9   101.11   -4 LegendNANA
07:00 -0.9 -4.1 79 0.0 36 7   101.15   -3 LegendNANA
08:00 -1.0 -4.4 78 0.0 1 11   101.19   -5 LegendNANA
09:00 -0.5 -4.3 76 0.0 2 14   101.22   -5 LegendNANA
10:00 0.1 -4.5 71 0.0 3 17   101.25     LegendNANA
11:00 0.6 -4.7 68 0.0 6 18   101.25     LegendNANA
12:00 1.0 -4.6 66 0.0 4 17   101.20     LegendNANA
13:00 1.5 -4.5 64 0.0 1 15   101.16     LegendNANA
14:00 2.5 -4.4 60 0.0 34 14   101.11     LegendNANA
15:00 2.2 -4.6 61 0.0 36 13   101.11     LegendNANA
16:00 1.7 -5.1 61 0.0 35 18   101.12     LegendNANA
17:00 0.3 -5.5 65 0.0 35 16   101.14     LegendNANA
18:00 -0.8 -5.6 70 0.0 1 11   101.22   -5 LegendNANA
19:00 -1.3 -5.8 71 0.0 34 7   101.29   -4 LegendNANA
20:00 -1.1 -5.7 71 0.0 35 10   101.31   -5 LegendNANA
21:00 -1.2 -5.4 73 0.0 36 6   101.31   -3 LegendNANA
22:00 -1.8 -6.0 73 0.0 36 16   101.30   -7 LegendNANA
23:00 -2.4 -6.1 75 0.0 34 13   101.30   -7 LegendNANA

Notes on Data Quality.

Legend

  • E = Estimated
  • M = Missing
  • NA = Not Available*
  • [empty] = Indicates an unobserved value
Date modified: